Weather in Tokmok

Kyrgyzstan     42˚49′49″N   75˚18′04″E
temp.,
°C
wind,
m/s
gust,
m/s
humid.,
%
clouds,
%
prec.,
mm/h
press.,
hPa
HPBL,
m
27 november, fri
fri2700:00+1˚sse3450100 0.0 103136
03:00+2˚sse2353100 0.0 103034
06:00+3˚se3554100 0.0 102967
09:00+4˚se3453100 0.0 102852
12:00+5˚e247299 0.0 1026100
15:00+5˚wnw117187 0.0 102336
18:00+3˚sw016094 0.0 102422
21:00+3˚se1256100 0.0 102524
28 november, sat
sat2800:00+2˚s1156100 0.0 102323
03:00+1˚wsw1266100 0.0 102322
06:00w0169100 0.0 102422
09:00−1˚wsw3379100 0.0 102752
12:00−1˚nnw2299100 4.3 1034175
15:00−1˚wsw3590100 2.9 1036501
18:00−3˚s3387100 3.6 104074
21:00−4˚sse1197100 1.8 104159
29 november, sun
sun2900:00−5˚ese2293100 2.5 104138
03:00−5˚e1296100 1.5 104268
06:00−7˚ese2391100 2.1 104338
09:00−7˚ese2286100 0.1 104433
12:00−5˚e127767 0.1 1042186
15:00−3˚wnw11770 0.0 1041190
18:00−8˚s11775 0.0 104321
21:00−10˚sse11680 0.0 104321
30 november, mon
mon3000:00−10˚se11610 0.0 104221
03:00−10˚se11560 0.0 104121
06:00−11˚se11530 0.0 104121
09:00−10˚e01530 0.0 104021
12:00−6˚nw11700 0.0 103665
15:00−6˚w11800 0.0 103489
18:00−10˚se00710 0.0 103421
21:00−9˚se115899 0.0 103421
1 december, tue
tue100:00−9˚s015760 0.0 103221
03:00−10˚ene1168100 0.0 103121
06:00−8˚ene0065100 0.0 103021
09:00−8˚ne0069100 0.0 103121
12:00−5˚n1177100 0.0 103067
15:00−4˚nnw118496 0.1 102960
18:00−9˚ese018691 0.1 103121
21:00−7˚ese0178100 0.0 103321